Date String (YYYY-MM-DD hh:mm:ss) UTC,Instrument flags,Ambient pressure (hPa),Sample flow (lpm),Bypass flow (lpm),Sample temperature (°C),Ambient temperature (°C),ASC tube jacket temperature (°C),LED temperature (°C),Box temperature (°C),Sample RH (%),Span deviation,Mass concentration (μg/m³),Mass concentration (μg/m³),Mass concentration (μg/m³)
DateTimeUTC,F1_M11,P_M11,Q1_M11,Q2_M11,T1_M11,T2_M11,T3_M11,T4_M11,T5_M11,U1_M11,ZSPAN_M11,X0_M11,X2_M11,X1_M11
2022-06-10 15:00:00,,0827.6,5.00,0.00,29.5,27.4,00.0,38.4,31.2,27.2,0000.0,0014.57,0004.99,0003.36
2022-06-10 15:01:00,,0827.6,5.00,0.00,29.4,27.4,00.0,38.4,31.1,27.2,0000.0,0014.16,0004.97,0003.36
2022-06-10 15:02:00,,0827.6,4.99,0.00,29.4,27.4,00.0,38.3,31.1,26.5,0000.0,0014.24,0005.00,0003.36
2022-06-10 15:03:00,,0827.5,5.00,0.00,29.4,27.6,00.0,38.3,31.1,25.9,0000.0,0014.00,0005.02,0003.34
2022-06-10 15:04:00,,0827.6,5.01,0.00,29.4,27.7,00.0,38.3,31.2,26.8,0000.0,0014.01,0005.02,0003.32
2022-06-10 15:05:00,,0827.5,5.01,0.00,29.4,27.8,00.0,38.3,31.2,26.3,0000.0,0014.30,0004.99,0003.29
2022-06-10 15:06:00,,0827.5,5.00,0.00,29.4,28.0,00.0,38.3,31.3,25.8,0000.0,0014.15,0004.97,0003.26
2022-06-10 15:07:00,,0827.5,4.99,0.00,29.4,28.1,00.0,38.3,31.3,25.3,0000.0,0015.20,0004.96,0003.24
2022-06-10 15:08:00,,0827.6,5.00,0.00,29.4,28.2,00.0,38.3,31.3,24.8,0000.0,0014.27,0004.92,0003.21
2022-06-10 15:09:00,,0827.6,5.00,0.00,29.4,28.3,00.0,38.3,31.3,24.9,0000.0,0013.71,0004.85,0003.17
2022-06-10 15:10:00,,0827.6,5.00,0.00,29.4,28.4,00.0,38.3,31.3,25.2,0000.0,0013.35,0004.74,0003.14
2022-06-10 15:11:00,,0827.7,5.01,0.00,29.4,28.4,00.0,38.3,31.4,24.4,0000.0,0013.30,0004.67,0003.11
2022-06-10 15:12:00,,0827.6,5.00,0.00,29.5,28.5,00.0,38.3,31.4,24.5,0000.0,0013.35,0004.61,0003.04
2022-06-10 15:13:00,,0827.7,5.00,0.00,29.5,28.6,00.0,38.3,31.4,25.6,0000.0,0013.34,0004.54,0002.99
2022-06-10 15:14:00,,0827.5,5.01,0.00,29.5,28.6,00.0,38.4,31.4,26.2,0000.0,0013.50,0004.48,0002.97
2022-06-10 15:15:00,,0827.5,5.00,0.00,29.5,28.7,00.0,38.4,31.5,26.4,0000.0,0013.37,0004.47,0002.97
2022-06-10 15:16:00,,0827.5,5.00,0.00,29.6,28.4,00.0,38.3,31.4,27.3,0000.0,0012.85,0004.43,0002.98
2022-06-10 15:17:00,,0827.5,4.99,0.00,29.5,27.6,00.0,38.3,31.2,27.7,0000.0,0012.30,0004.41,0002.99
2022-06-10 15:18:00,,0827.6,5.01,0.00,29.4,27.2,00.0,38.2,31.1,27.5,0000.0,0011.96,0004.44,0003.00
2022-06-10 15:19:00,,0827.6,4.99,0.00,29.3,27.2,00.0,38.2,31.0,26.8,0000.0,0012.34,0004.51,0003.05
2022-06-10 15:20:00,,0827.6,4.99,0.00,29.3,27.3,00.0,38.2,31.0,27.4,0000.0,0013.43,0004.60,0003.12
2022-06-10 15:21:00,,0827.6,5.00,0.00,29.2,27.4,00.0,38.2,31.0,27.3,0000.0,0014.08,0004.83,0003.18
2022-06-10 15:22:00,,0827.6,5.00,0.00,29.2,27.5,00.0,38.2,31.1,27.7,0000.0,0014.48,0004.86,0003.22
2022-06-10 15:23:00,,0827.6,5.00,0.00,29.2,27.7,00.0,38.2,31.1,27.6,0000.0,0014.69,0004.87,0003.25
2022-06-10 15:24:00,,0827.5,5.00,0.00,29.2,27.8,00.0,38.2,31.1,27.8,0000.0,0014.72,0004.88,0003.27
2022-06-10 15:25:00,,0827.5,5.01,0.00,29.3,27.9,00.0,38.2,31.1,28.6,0000.0,0015.85,0004.88,0003.29
2022-06-10 15:26:00,,0827.5,4.99,0.00,29.3,28.1,00.0,38.2,31.2,29.0,0000.0,0016.30,0004.89,0003.30
2022-06-10 15:27:00,,0827.5,5.01,0.00,29.3,28.2,00.0,38.2,31.2,28.2,0000.0,0017.00,0004.92,0003.32
2022-06-10 15:28:00,,0827.5,4.99,0.00,29.3,28.3,00.0,38.2,31.2,27.7,0000.0,0016.88,0004.97,0003.34
2022-06-10 15:29:00,,0827.5,5.00,0.00,29.3,28.3,00.0,38.2,31.3,27.7,0000.0,0016.07,0004.94,0003.36
2022-06-10 15:30:00,,0827.5,5.00,0.00,29.4,28.4,00.0,38.2,31.3,27.6,0000.0,0015.94,0004.97,0003.37
2022-06-10 15:31:00,,0827.5,5.00,0.00,29.4,28.5,00.0,38.2,31.4,27.9,0000.0,0015.12,0004.99,0003.38
2022-06-10 15:32:00,,0827.6,5.00,0.00,29.4,28.5,00.0,38.2,31.4,27.7,0000.0,0014.75,0004.91,0003.37
2022-06-10 15:33:00,,0827.5,4.99,0.00,29.4,28.5,00.0,38.3,31.4,27.0,0000.0,0014.34,0004.91,0003.36
2022-06-10 15:34:00,,0827.5,4.99,0.00,29.4,28.0,00.0,38.2,31.3,27.0,0000.0,0014.19,0004.91,0003.36
2022-06-10 15:35:00,,0827.4,5.01,0.00,29.4,27.4,00.0,38.2,31.1,27.4,0000.0,0014.10,0004.90,0003.36
2022-06-10 15:36:00,,0827.4,5.00,0.00,29.3,27.2,00.0,38.1,31.0,27.8,0000.0,0012.57,0004.94,0003.35
2022-06-10 15:37:00,,0827.4,5.00,0.00,29.2,27.2,00.0,38.1,30.9,28.1,0000.0,0012.01,0004.94,0003.35
2022-06-10 15:38:00,,0827.4,5.00,0.00,29.2,27.3,00.0,38.1,31.0,27.5,0000.0,0011.65,0004.90,0003.33
2022-06-10 15:39:00,,0827.4,5.01,0.00,29.2,27.4,00.0,38.1,31.0,26.4,0000.0,0011.75,0004.84,0003.28
2022-06-10 15:40:00,,0827.4,4.99,0.00,29.2,27.6,00.0,38.1,31.0,26.8,0000.0,0011.79,0004.85,0003.25
2022-06-10 15:41:00,,0827.5,5.00,0.00,29.2,27.7,00.0,38.1,31.0,26.5,0000.0,0012.18,0004.83,0003.22
2022-06-10 15:42:00,,0827.4,5.00,0.00,29.2,27.8,00.0,38.1,31.1,25.9,0000.0,0012.58,0004.74,0003.18
2022-06-10 15:43:00,,0827.4,5.00,0.00,29.2,28.0,00.0,38.1,31.1,26.6,0000.0,0013.09,0004.67,0003.16
2022-06-10 15:44:00,,0827.4,5.00,0.00,29.2,28.1,00.0,38.1,31.1,25.5,0000.0,0014.02,0004.65,0003.14
2022-06-10 15:45:00,,0827.4,5.00,0.00,29.2,28.2,00.0,38.1,31.2,25.7,0000.0,0014.19,0004.63,0003.13
2022-06-10 15:46:00,,0827.4,4.99,0.00,29.3,28.3,00.0,38.1,31.2,25.3,0000.0,0014.15,0004.61,0003.11
2022-06-10 15:47:00,,0827.4,4.99,0.00,29.3,28.3,00.0,38.1,31.2,25.5,0000.0,0014.41,0004.52,0003.08
2022-06-10 15:48:00,,0827.4,5.00,0.00,29.3,28.4,00.0,38.1,31.3,25.4,0000.0,0014.67,0004.48,0003.05
2022-06-10 15:49:00,,0827.3,5.00,0.00,29.3,28.5,00.0,38.2,31.3,26.6,0000.0,0014.42,0004.47,0003.05
2022-06-10 15:50:00,,0827.3,5.00,0.00,29.4,28.3,00.0,38.1,31.3,27.0,0000.0,0014.28,0004.47,0003.06
2022-06-10 15:51:00,,0827.2,5.00,0.00,29.3,27.6,00.0,38.1,31.1,26.6,0000.0,0014.19,0004.41,0003.06
2022-06-10 15:52:00,,0827.2,5.01,0.00,29.2,27.1,00.0,38.0,30.9,25.9,0000.0,0013.80,0004.34,0003.06
2022-06-10 15:53:00,,0827.2,4.99,0.00,29.2,27.1,00.0,38.0,30.9,26.9,0000.0,0013.50,0004.38,0003.09
2022-06-10 15:54:00,,0827.1,5.01,0.00,29.1,27.1,00.0,38.0,30.8,27.8,0000.0,0013.19,0004.47,0003.12
2022-06-10 15:55:00,,0827.2,5.00,0.00,29.1,27.2,00.0,38.0,30.9,28.4,0000.0,0012.06,0004.55,0003.16
2022-06-10 15:56:00,,0827.2,5.00,0.00,29.1,27.4,00.0,38.0,30.9,29.1,0000.0,0012.07,0004.61,0003.20
2022-06-10 15:57:00,,0827.2,4.99,0.00,29.1,27.5,00.0,38.0,30.9,28.3,0000.0,0011.94,0004.64,0003.23
2022-06-10 15:58:00,,0827.1,5.00,0.00,29.1,27.6,00.0,38.0,31.0,28.2,0000.0,0011.52,0004.68,0003.25
2022-06-10 15:59:00,,0827.1,5.00,0.00,29.1,27.8,00.0,38.0,31.0,27.3,0000.0,0011.39,0004.74,0003.28
